,,PA_Meas_PMT16A,,PR_Meas_QMR101_102,,RH_Meas_QMH101,,SR_Meas_QMS101,,TA_Meas_QMH101,,GenWind,,GenWind,
time,status,PA,status,PR,status,RH,status,SR,status,TA,status,DirAvg,status,SpdAvg,
2013-08-04, 00:00:05,VALID,918.672,VALID,0,VALID,91.1913,VALID,0.107441,VALID,18.1626,VALID,103,VALID,0,
2013-08-04, 00:01:05,VALID,918.67,VALID,0,VALID,91.1913,VALID,0.107441,VALID,18.1236,VALID,103,VALID,0,
2013-08-04, 00:02:05,VALID,918.665,VALID,0,VALID,91.1913,VALID,0,VALID,18.0846,VALID,103,VALID,0,
2013-08-04, 00:03:05,VALID,918.655,VALID,0,VALID,91.42,VALID,0,VALID,18.0651,VALID,103,VALID,0,
2013-08-04, 00:04:05,VALID,918.654,VALID,0,VALID,91.5648,VALID,0.107441,VALID,18.0457,VALID,103,VALID,0,
2013-08-04, 00:05:05,VALID,918.638,VALID,0,VALID,91.7097,VALID,0.107441,VALID,18.0457,VALID,103,VALID,0,
2013-08-04, 00:06:05,VALID,918.653,VALID,0,VALID,91.824,VALID,0,VALID,18.086,VALID,103,VALID,0,
2013-08-04, 00:07:05,VALID,918.634,VALID,0,VALID,91.9155,VALID,0,VALID,18.125,VALID,103,VALID,0,
2013-08-04, 00:08:05,VALID,918.631,VALID,0,VALID,91.7935,VALID,0,VALID,18.1055,VALID,103,VALID,0,
2013-08-04, 00:09:05,VALID,918.654,VALID,0,VALID,92.0451,VALID,0,VALID,18.125,VALID,103,VALID,0,
2013-08-04, 00:10:05,VALID,918.641,VALID,0,VALID,92.0375,VALID,0.107441,VALID,18.0846,VALID,103,VALID,0,
2013-08-04, 00:11:05,VALID,918.657,VALID,0,VALID,91.7631,VALID,0,VALID,18.0665,VALID,103,VALID,0,
2013-08-04, 00:12:05,VALID,918.668,VALID,0,VALID,91.6868,VALID,0.107441,VALID,18.0457,VALID,103,VALID,0,
2013-08-04, 00:13:05,VALID,918.693,VALID,0,VALID,91.6563,VALID,0,VALID,18.1055,VALID,103,VALID,0,
2013-08-04, 00:14:05,VALID,918.675,VALID,0,VALID,91.3514,VALID,0.107441,VALID,18.125,VALID,103,VALID,0,
2013-08-04, 00:15:05,VALID,918.669,VALID,0,VALID,91.0312,VALID,0,VALID,18.1236,VALID,103,VALID,0,
2013-08-04, 00:16:05,VALID,918.671,VALID,0,VALID,90.9169,VALID,0,VALID,18.1445,VALID,103,VALID,0,
2013-08-04, 00:17:05,VALID,918.64,VALID,0,VALID,90.7644,VALID,0,VALID,18.0457,VALID,103,VALID,0,
2013-08-04, 00:18:05,VALID,918.655,VALID,0,VALID,91.2066,VALID,0,VALID,17.9677,VALID,103,VALID,0,
2013-08-04, 00:19:05,VALID,918.646,VALID,0,VALID,91.7478,VALID,0,VALID,17.9496,VALID,103,VALID,0,
2013-08-04, 00:20:05,VALID,918.631,VALID,0,VALID,92.2433,VALID,0,VALID,17.9106,VALID,103,VALID,0,
2013-08-04, 00:21:05,VALID,918.623,VALID,0,VALID,92.7541,VALID,0,VALID,17.8521,VALID,103,VALID,0,
2013-08-04, 00:22:05,VALID,918.598,VALID,0,VALID,93.1124,VALID,0.107441,VALID,17.8326,VALID,103,VALID,0,
2013-08-04, 00:23:05,VALID,918.57,VALID,0,VALID,93.2268,VALID,0,VALID,17.7936,VALID,103,VALID,0,
2013-08-04, 00:24:05,VALID,918.553,VALID,0,VALID,93.1658,VALID,0,VALID,17.6754,VALID,103,VALID,0,
2013-08-04, 00:25:05,VALID,918.535,VALID,0,VALID,93.5622,VALID,0,VALID,17.6767,VALID,103,VALID,0,
2013-08-04, 00:26:05,VALID,918.546,VALID,0,VALID,93.9129,VALID,0,VALID,17.6572,VALID,103,VALID,0,
2013-08-04, 00:27:05,VALID,918.498,VALID,0,VALID,94.1339,VALID,0,VALID,17.6572,VALID,104,VALID,0,
2013-08-04, 00:28:05,VALID,918.495,VALID,0,VALID,94.3398,VALID,0,VALID,17.6377,VALID,104,VALID,0,
2013-08-04, 00:29:05,VALID,918.499,VALID,0,VALID,94.4617,VALID,0,VALID,17.6377,VALID,103,VALID,0,
2013-08-04, 00:30:05,VALID,918.502,VALID,0,VALID,94.5532,VALID,0,VALID,17.6182,VALID,103,VALID,0,
2013-08-04, 00:31:05,VALID,918.518,VALID,0,VALID,94.5304,VALID,0,VALID,17.6377,VALID,103,VALID,0,
2013-08-04, 00:32:05,VALID,918.496,VALID,0,VALID,94.2712,VALID,0,VALID,17.6572,VALID,103,VALID,0,
2013-08-04, 00:33:05,VALID,918.511,VALID,0,VALID,94.1644,VALID,0,VALID,17.6377,VALID,103,VALID,0,
2013-08-04, 00:34:05,VALID,918.522,VALID,0,VALID,94.012,VALID,0,VALID,17.6767,VALID,103,VALID,0,
2013-08-04, 00:35:04,VALID,918.495,VALID,0,VALID,93.7604,VALID,0,VALID,17.6962,VALID,104,VALID,0,
2013-08-04, 00:36:04,VALID,918.509,VALID,0,VALID,93.5851,VALID,0.107441,VALID,17.7157,VALID,103,VALID,0,
2013-08-04, 00:37:04,VALID,918.516,VALID,0,VALID,93.3945,VALID,0,VALID,17.7936,VALID,103,VALID,0,
2013-08-04, 00:38:04,VALID,918.51,VALID,0,VALID,92.9294,VALID,0,VALID,17.7741,VALID,103,VALID,0,
2013-08-04, 00:39:04,VALID,918.536,VALID,0,VALID,92.5025,VALID,0,VALID,17.7352,VALID,103,VALID,0,
2013-08-04, 00:40:04,VALID,918.529,VALID,0,VALID,92.5788,VALID,0,VALID,17.7741,VALID,103,VALID,0,
2013-08-04, 00:41:04,VALID,918.552,VALID,0,VALID,92.5788,VALID,0,VALID,17.7936,VALID,103,VALID,0,
2013-08-04, 00:42:04,VALID,918.504,VALID,0,VALID,92.4034,VALID,0,VALID,17.8521,VALID,104,VALID,0,
2013-08-04, 00:43:04,VALID,918.511,VALID,0,VALID,92.1137,VALID,0,VALID,17.8716,VALID,103,VALID,0,
2013-08-04, 00:44:04,VALID,918.498,VALID,0,VALID,91.7021,VALID,0,VALID,17.9496,VALID,103,VALID,0,
2013-08-04, 00:45:04,VALID,918.502,VALID,0,VALID,91.0083,VALID,0,VALID,18.0275,VALID,103,VALID,0,
2013-08-04, 00:46:04,VALID,918.472,VALID,0,VALID,90.5357,VALID,0,VALID,18.0275,VALID,103,VALID,0,
2013-08-04, 00:47:04,VALID,918.465,VALID,0,VALID,90.2917,VALID,0.107441,VALID,18.047,VALID,103,VALID,0,
2013-08-04, 00:48:04,VALID,918.486,VALID,0,VALID,90.1164,VALID,0,VALID,18.008,VALID,104,VALID,0,
2013-08-04, 00:49:04,VALID,918.456,VALID,0,VALID,90.1621,VALID,0.107441,VALID,18.0275,VALID,103,VALID,0,
2013-08-04, 00:50:04,VALID,918.444,VALID,0,VALID,90.1393,VALID,0,VALID,18.047,VALID,103,VALID,0,
2013-08-04, 00:51:04,VALID,918.461,VALID,0,VALID,90.0325,VALID,0,VALID,18.0484,VALID,103,VALID,0,
2013-08-04, 00:52:04,VALID,918.451,VALID,0,VALID,90.0859,VALID,0,VALID,18.0275,VALID,103,VALID,0,
2013-08-04, 00:53:04,VALID,918.4,VALID,0,VALID,90.1393,VALID,0,VALID,18.008,VALID,103,VALID,0,
2013-08-04, 00:54:04,VALID,918.426,VALID,0,VALID,90.2536,VALID,0,VALID,18.008,VALID,103,VALID,0,
2013-08-04, 00:55:04,VALID,918.417,VALID,0,VALID,90.3146,VALID,0,VALID,18.008,VALID,102,VALID,0,
2013-08-04, 00:56:04,VALID,918.404,VALID,0,VALID,90.2308,VALID,0,VALID,18.047,VALID,103,VALID,0,
2013-08-04, 00:57:04,VALID,918.384,VALID,0,VALID,90.0859,VALID,0,VALID,18.086,VALID,103,VALID,0,
2013-08-04, 00:58:04,VALID,918.395,VALID,0,VALID,89.842,VALID,0,VALID,18.125,VALID,103,VALID,0,
2013-08-04, 00:59:04,VALID,918.382,VALID,0,VALID,89.7124,VALID,0,VALID,18.203,VALID,103,VALID,0,
2013-08-04, 01:00:04,VALID,918.375,VALID,0,VALID,89.3846,VALID,0,VALID,18.3018,VALID,103,VALID,0,
2013-08-04, 01:01:04,VALID,918.329,VALID,0,VALID,88.7747,VALID,0,VALID,18.3589,VALID,345,VALID,0,
2013-08-04, 01:02:04,VALID,918.362,VALID,0,VALID,87.7913,VALID,0,VALID,18.3993,VALID,345,VALID,0,
2013-08-04, 01:03:04,VALID,918.323,VALID,0,VALID,88.5536,VALID,0,VALID,18.3979,VALID,345,VALID,0,
2013-08-04, 01:04:04,VALID,918.318,VALID,0,VALID,88.7289,VALID,0,VALID,18.4174,VALID,345,VALID,0,
2013-08-04, 01:05:04,VALID,918.306,VALID,0,VALID,88.2715,VALID,0,VALID,18.3979,VALID,345,VALID,0,
2013-08-04, 01:06:04,VALID,918.256,VALID,0,VALID,88.2334,VALID,0,VALID,18.3979,INVALID,360,VALID,0,
2013-08-04, 01:07:04,VALID,918.272,VALID,0,VALID,88.3325,VALID,0,VALID,18.3979,VALID,345,VALID,0,
2013-08-04, 01:08:04,VALID,918.263,VALID,0,VALID,88.1877,VALID,0,VALID,18.4188,VALID,345,VALID,0,
2013-08-04, 01:09:04,VALID,918.257,VALID,0,VALID,88.5917,VALID,0.107441,VALID,18.4174,VALID,345,VALID,0,
2013-08-04, 01:10:04,VALID,918.262,VALID,0,VALID,88.5688,VALID,0,VALID,18.4369,VALID,345,VALID,0,
2013-08-04, 01:11:04,VALID,918.262,VALID,0,VALID,88.668,VALID,0.107441,VALID,18.3965,VALID,345,VALID,0,
2013-08-04, 01:12:04,VALID,918.288,VALID,0,VALID,88.7213,VALID,0.107441,VALID,18.4174,VALID,345,VALID,0,
2013-08-04, 01:13:04,VALID,918.315,VALID,0,VALID,88.7137,VALID,0.107441,VALID,18.377,VALID,345,VALID,0,
2013-08-04, 01:14:04,VALID,918.322,VALID,0,VALID,89.0491,VALID,0.107441,VALID,18.3784,VALID,345,VALID,0,
2013-08-04, 01:15:04,VALID,918.338,VALID,0,VALID,89.1101,VALID,0.107441,VALID,18.3784,VALID,345,VALID,0,
2013-08-04, 01:16:04,VALID,918.352,VALID,0,VALID,89.072,VALID,0.107441,VALID,18.3979,VALID,345,VALID,0,
2013-08-04, 01:17:04,VALID,918.338,VALID,0,VALID,88.9119,VALID,0,VALID,18.4188,VALID,345,VALID,0,
2013-08-04, 01:18:04,VALID,918.353,VALID,0,VALID,88.8738,VALID,0.107441,VALID,18.4174,VALID,345,VALID,0,
2013-08-04, 01:19:04,VALID,918.343,VALID,0,VALID,88.9576,VALID,0,VALID,18.3979,VALID,345,VALID,0,
2013-08-04, 01:20:04,VALID,918.33,VALID,0,VALID,88.5231,VALID,0,VALID,18.3394,VALID,345,VALID,0,
2013-08-04, 01:21:04,VALID,918.334,VALID,0,VALID,89.1863,VALID,0.107441,VALID,18.2615,VALID,345,VALID,0,
2013-08-04, 01:22:04,VALID,918.33,VALID,0,VALID,89.3388,VALID,0,VALID,18.2211,VALID,345,VALID,0,
2013-08-04, 01:23:04,VALID,918.311,VALID,0,VALID,89.3312,VALID,0,VALID,18.164,VALID,345,VALID,0,
2013-08-04, 01:24:04,VALID,918.303,VALID,0,VALID,89.5142,VALID,0,VALID,18.1445,VALID,345,VALID,0,
2013-08-04, 01:25:04,VALID,918.333,VALID,0,VALID,89.8343,VALID,0,VALID,18.125,VALID,344,VALID,0,
2013-08-04, 01:26:04,VALID,918.315,VALID,0,VALID,89.9639,VALID,0,VALID,18.125,VALID,337,VALID,0,
2013-08-04, 01:27:04,VALID,918.284,VALID,0,VALID,89.8953,VALID,0,VALID,18.1264,VALID,337,VALID,0,
2013-08-04, 01:28:04,VALID,918.293,VALID,0,VALID,89.7581,VALID,0,VALID,18.125,VALID,337,VALID,0,
2013-08-04, 01:29:04,VALID,918.26,VALID,0,VALID,89.8572,VALID,0,VALID,18.1236,VALID,337,VALID,0,
2013-08-04, 01:30:04,VALID,918.284,VALID,0,VALID,89.9487,VALID,0,VALID,18.1835,VALID,337,VALID,0,
2013-08-04, 01:31:04,VALID,918.289,VALID,0,VALID,89.3541,VALID,0,VALID,18.2225,VALID,244,VALID,0,
2013-08-04, 01:32:04,VALID,918.252,VALID,0,VALID,89.0186,VALID,0,VALID,18.2809,VALID,244,VALID,0,
2013-08-04, 01:33:04,VALID,918.245,VALID,0,VALID,88.8128,VALID,0.107441,VALID,18.3394,VALID,244,VALID,0,
2013-08-04, 01:34:04,VALID,918.24,VALID,0,VALID,88.668,VALID,0,VALID,18.3199,VALID,244,VALID,0,
2013-08-04, 01:35:04,VALID,918.216,VALID,0,VALID,88.4621,VALID,0,VALID,18.3394,VALID,244,VALID,0,
2013-08-04, 01:36:04,VALID,918.203,VALID,0,VALID,88.3173,VALID,0,VALID,18.3979,VALID,244,VALID,0,
2013-08-04, 01:37:04,VALID,918.217,VALID,0,VALID,88.2182,VALID,0.107441,VALID,18.4174,VALID,244,VALID,0,
2013-08-04, 01:38:04,VALID,918.248,VALID,0,VALID,88.2639,VALID,0.107441,VALID,18.4369,VALID,244,VALID,0,
2013-08-04, 01:39:04,VALID,918.233,VALID,0,VALID,88.1724,VALID,0.107441,VALID,18.416,VALID,244,VALID,0,
2013-08-04, 01:40:04,VALID,918.229,VALID,0,VALID,88.4697,VALID,0.107441,VALID,18.3965,VALID,244,VALID,0,
2013-08-04, 01:41:04,VALID,918.199,VALID,0,VALID,88.5307,VALID,0,VALID,18.377,VALID,243,VALID,0,
2013-08-04, 01:42:04,VALID,918.207,VALID,0,VALID,87.9056,VALID,0.107441,VALID,18.4355,VALID,244,VALID,0,
2013-08-04, 01:43:04,VALID,918.208,VALID,0,VALID,88.0276,VALID,0.107441,VALID,18.4954,VALID,244,VALID,0,
2013-08-04, 01:44:04,VALID,918.17,VALID,0,VALID,88.1114,VALID,0.107441,VALID,18.4954,VALID,244,VALID,0,
2013-08-04, 01:45:04,VALID,918.171,VALID,0,VALID,88.1648,VALID,0.107441,VALID,18.4369,VALID,244,VALID,0,
2013-08-04, 01:46:04,VALID,918.131,VALID,0,VALID,88.4392,VALID,0,VALID,18.3979,VALID,244,VALID,0,
2013-08-04, 01:47:04,VALID,918.144,VALID,0,VALID,88.2715,VALID,0,VALID,18.338,VALID,244,VALID,0,
2013-08-04, 01:48:04,VALID,918.141,VALID,0,VALID,88.3401,VALID,0,VALID,18.3394,VALID,244,VALID,0,
2013-08-04, 01:49:04,VALID,918.133,VALID,0,VALID,88.2715,VALID,0.107441,VALID,18.3784,VALID,244,VALID,0,
2013-08-04, 01:50:04,VALID,918.13,VALID,0,VALID,88.3706,VALID,0,VALID,18.3784,VALID,244,VALID,0,
2013-08-04, 01:51:04,VALID,918.13,VALID,0,VALID,88.1038,VALID,0.107441,VALID,18.338,VALID,244,VALID,0,
2013-08-04, 01:52:04,VALID,918.103,VALID,0,VALID,88.2105,VALID,0.107441,VALID,18.3784,VALID,244,VALID,0,
2013-08-04, 01:53:04,VALID,918.119,VALID,0,VALID,88.3935,VALID,0.107441,VALID,18.377,VALID,244,VALID,0,
2013-08-04, 01:54:04,VALID,918.123,VALID,0,VALID,88.7366,VALID,0,VALID,18.3575,VALID,244,VALID,0,
2013-08-04, 01:55:04,VALID,918.076,VALID,0,VALID,88.4774,VALID,0.107441,VALID,18.3185,VALID,244,VALID,0,
2013-08-04, 01:56:04,VALID,918.072,VALID,0,VALID,88.2334,VALID,0,VALID,18.3993,VALID,244,VALID,0,
2013-08-04, 01:57:04,VALID,918.067,VALID,0,VALID,87.7455,VALID,0,VALID,18.4188,VALID,244,VALID,0,
2013-08-04, 01:58:04,VALID,918.055,VALID,0,VALID,87.4634,VALID,0,VALID,18.4759,VALID,244,VALID,0,
2013-08-04, 01:59:04,VALID,918.037,VALID,0,VALID,87.2881,VALID,0,VALID,18.4954,VALID,244,VALID,0,
2013-08-04, 02:00:04,VALID,918.053,VALID,0,VALID,87.7608,VALID,0,VALID,18.4954,VALID,244,VALID,0,
2013-08-04, 02:01:04,VALID,918.047,VALID,0,VALID,87.9513,VALID,0,VALID,18.4759,VALID,244,VALID,0,
2013-08-04, 02:02:04,VALID,918.035,VALID,0,VALID,88.4774,VALID,0,VALID,18.4174,VALID,244,VALID,0,
2013-08-04, 02:03:04,VALID,918.067,VALID,0,VALID,89.4379,VALID,0,VALID,18.3798,VALID,244,VALID,0,
2013-08-04, 02:04:04,VALID,918.049,VALID,0,VALID,89.9563,VALID,0,VALID,18.3199,VALID,244,VALID,0,
2013-08-04, 02:05:04,VALID,918.044,VALID,0,VALID,91.0388,VALID,0,VALID,18.2615,VALID,244,VALID,0,
2013-08-04, 02:06:04,VALID,918.054,VALID,0,VALID,91.4276,VALID,0,VALID,18.1849,VALID,244,VALID,0,
2013-08-04, 02:07:04,VALID,918.018,VALID,0,VALID,91.7859,VALID,0,VALID,18.125,VALID,244,VALID,0,
2013-08-04, 02:08:04,VALID,918.032,VALID,0,VALID,92.129,VALID,0,VALID,18.0665,VALID,244,VALID,0,
2013-08-04, 02:09:04,VALID,918.015,VALID,0,VALID,92.5025,VALID,0,VALID,18.0484,VALID,164,VALID,0,
2013-08-04, 02:10:04,VALID,917.997,VALID,0,VALID,92.6702,VALID,0,VALID,18.0289,VALID,164,VALID,0,
2013-08-04, 02:11:04,VALID,918.014,VALID,0,VALID,92.7617,VALID,0.107441,VALID,18.0275,VALID,164,VALID,0,
2013-08-04, 02:12:04,VALID,917.966,VALID,0,VALID,92.7617,VALID,0.107441,VALID,18.047,VALID,164,VALID,0,
2013-08-04, 02:13:04,VALID,917.973,VALID,0,VALID,92.6702,VALID,0.107441,VALID,18.0275,VALID,164,VALID,0,
2013-08-04, 02:14:04,VALID,917.938,VALID,0,VALID,92.3119,VALID,0.107441,VALID,18.047,VALID,164,VALID,0,
2013-08-04, 02:15:04,VALID,917.938,VALID,0,VALID,91.9536,VALID,0.107441,VALID,18.086,VALID,164,VALID,0,
2013-08-04, 02:16:04,VALID,917.906,VALID,0,VALID,91.6868,VALID,0.107441,VALID,18.0665,VALID,164,VALID,0,
2013-08-04, 02:17:04,VALID,917.898,VALID,0,VALID,91.542,VALID,0,VALID,18.0665,VALID,164,VALID,0,
2013-08-04, 02:18:04,VALID,917.91,VALID,0,VALID,91.3666,VALID,0,VALID,18.047,VALID,164,VALID,0,
2013-08-04, 02:19:04,VALID,917.886,VALID,0,VALID,91.298,VALID,0,VALID,18.0275,VALID,164,VALID,0,
2013-08-04, 02:20:04,VALID,917.84,VALID,0,VALID,91.2675,VALID,0.107441,VALID,18.008,VALID,164,VALID,0,
2013-08-04, 02:21:04,VALID,917.836,VALID,0,VALID,91.0236,VALID,0,VALID,17.9482,VALID,164,VALID,0,
2013-08-04, 02:22:04,VALID,917.848,VALID,0,VALID,90.8559,VALID,0,VALID,17.9287,VALID,164,VALID,0,
2013-08-04, 02:23:04,VALID,917.797,VALID,0,VALID,90.6119,VALID,0.107441,VALID,17.9691,VALID,164,VALID,0,
2013-08-04, 02:24:04,VALID,917.793,VALID,0,VALID,90.4518,VALID,0.107441,VALID,17.9691,VALID,164,VALID,0,
2013-08-04, 02:25:04,VALID,917.754,VALID,0,VALID,90.0249,VALID,0,VALID,18.008,VALID,190,VALID,0,
2013-08-04, 02:26:04,VALID,917.717,VALID,0,VALID,89.5599,VALID,0,VALID,18.0094,VALID,190,VALID,0,
2013-08-04, 02:27:04,VALID,917.743,VALID,0,VALID,89.3693,VALID,0,VALID,18.0484,VALID,190,VALID,0,
2013-08-04, 02:28:04,VALID,917.697,VALID,0,VALID,89.3388,VALID,0,VALID,18.0289,VALID,190,VALID,0,
2013-08-04, 02:29:04,VALID,917.706,VALID,0,VALID,89.2931,VALID,0,VALID,18.0094,VALID,190,VALID,0,
2013-08-04, 02:30:04,VALID,917.681,VALID,0,VALID,89.2854,VALID,0,VALID,17.9509,VALID,190,VALID,0,
2013-08-04, 02:31:04,VALID,917.705,VALID,0,VALID,89.2626,VALID,0,VALID,17.9119,VALID,190,VALID,0,
2013-08-04, 02:32:04,VALID,917.641,VALID,0,VALID,89.4227,VALID,0,VALID,17.8521,VALID,190,VALID,0,
2013-08-04, 02:33:04,VALID,917.627,VALID,0,VALID,89.5828,VALID,0,VALID,17.795,VALID,175,VALID,0,
2013-08-04, 02:34:04,VALID,917.619,VALID,0,VALID,89.8267,VALID,0,VALID,17.7365,VALID,111,VALID,0,
2013-08-04, 02:35:04,VALID,917.585,VALID,0,VALID,90.2308,VALID,0,VALID,17.6391,VALID,111,VALID,0,
2013-08-04, 02:36:04,VALID,917.573,VALID,0,VALID,90.368,VALID,0,VALID,17.6001,VALID,111,VALID,0,
2013-08-04, 02:37:04,VALID,917.562,VALID,0,VALID,90.6195,VALID,0,VALID,17.5611,VALID,111,VALID,0,
2013-08-04, 02:38:04,VALID,917.522,VALID,0,VALID,90.6882,VALID,0,VALID,17.6001,VALID,111,VALID,0,
2013-08-04, 02:39:04,VALID,917.52,VALID,0,VALID,90.5357,VALID,0,VALID,17.5806,VALID,111,VALID,0,
2013-08-04, 02:40:04,VALID,917.509,VALID,0,VALID,90.2841,VALID,0,VALID,17.6182,VALID,111,VALID,0,
2013-08-04, 02:41:04,VALID,917.508,VALID,0,VALID,90.063,VALID,0.107441,VALID,17.6767,VALID,111,VALID,0,
2013-08-04, 02:42:04,VALID,917.485,VALID,0,VALID,89.8496,VALID,0.107441,VALID,17.6767,VALID,111,VALID,0,
2013-08-04, 02:43:04,VALID,917.472,VALID,0,VALID,89.6209,VALID,0.107441,VALID,17.6754,VALID,111,VALID,0,
2013-08-04, 02:44:04,VALID,917.449,VALID,0,VALID,89.5675,VALID,0,VALID,17.7547,VALID,111,VALID,0,
2013-08-04, 02:45:04,VALID,917.443,VALID,0,VALID,89.1101,VALID,0,VALID,17.8131,VALID,111,VALID,0,
2013-08-04, 02:46:04,VALID,917.419,VALID,0,VALID,88.607,VALID,0,VALID,17.9314,VALID,111,VALID,0,
2013-08-04, 02:47:04,VALID,917.404,VALID,0,VALID,88.1953,VALID,0.107441,VALID,18.008,VALID,111,VALID,0,
2013-08-04, 02:48:04,VALID,917.39,VALID,0,VALID,87.9056,VALID,0,VALID,18.0275,VALID,111,VALID,0,
2013-08-04, 02:49:04,VALID,917.377,VALID,0,VALID,88.1724,VALID,0,VALID,17.9691,VALID,111,VALID,0,
2013-08-04, 02:50:04,VALID,917.322,VALID,0,VALID,88.6832,VALID,0.107441,VALID,17.9106,VALID,111,VALID,0,
2013-08-04, 02:51:04,VALID,917.347,VALID,0,VALID,88.8738,VALID,0,VALID,17.8716,VALID,111,VALID,0,
2013-08-04, 02:52:04,VALID,917.349,VALID,0,VALID,88.9881,VALID,0.107441,VALID,17.8521,VALID,111,VALID,0,
2013-08-04, 02:53:04,VALID,917.341,VALID,0,VALID,89.133,VALID,0,VALID,17.8326,VALID,111,VALID,0,
2013-08-04, 02:54:04,VALID,917.305,VALID,0,VALID,89.072,VALID,0,VALID,17.8897,VALID,111,VALID,0,
2013-08-04, 02:55:04,VALID,917.321,VALID,0,VALID,88.5231,VALID,0.107441,VALID,17.9691,VALID,111,VALID,0,
2013-08-04, 02:56:04,VALID,917.308,VALID,0,VALID,87.959,VALID,0,VALID,18.086,VALID,111,VALID,0,
2013-08-04, 02:57:04,VALID,917.323,VALID,0,VALID,87.5702,VALID,0,VALID,18.1445,VALID,111,VALID,0,
2013-08-04, 02:58:04,VALID,917.282,VALID,0,VALID,87.189,VALID,0.107441,VALID,18.242,VALID,111,VALID,0,
2013-08-04, 02:59:04,VALID,917.264,VALID,0,VALID,87.2729,VALID,0.107441,VALID,18.2225,VALID,111,VALID,0,
2013-08-04, 03:00:04,VALID,917.24,VALID,0,VALID,87.5092,VALID,0.107441,VALID,18.1835,VALID,111,VALID,0,
2013-08-04, 03:01:04,VALID,917.228,VALID,0,VALID,87.3567,VALID,0,VALID,18.1821,VALID,111,VALID,0,
2013-08-04, 03:02:04,VALID,917.197,VALID,0,VALID,87.1051,VALID,0.107441,VALID,18.2225,VALID,111,VALID,0,
2013-08-04, 03:03:04,VALID,917.179,VALID,0,VALID,86.8841,VALID,0,VALID,18.2615,VALID,111,VALID,0,
2013-08-04, 03:04:04,VALID,917.152,VALID,0,VALID,86.6477,VALID,0,VALID,18.2809,VALID,111,VALID,0,
2013-08-04, 03:05:04,VALID,917.131,VALID,0,VALID,86.4419,VALID,0,VALID,18.299,VALID,111,VALID,0,
2013-08-04, 03:06:04,VALID,917.107,VALID,0,VALID,86.2361,VALID,0,VALID,18.3589,VALID,111,VALID,0,
2013-08-04, 03:07:04,VALID,917.117,VALID,0,VALID,86.1065,VALID,0.107441,VALID,18.3784,VALID,111,VALID,0,
2013-08-04, 03:08:04,VALID,917.105,VALID,0,VALID,86.1065,VALID,0.107441,VALID,18.3979,VALID,111,VALID,0,
2013-08-04, 03:09:04,VALID,917.127,VALID,0,VALID,85.7406,VALID,0,VALID,18.4564,VALID,111,VALID,0,
2013-08-04, 03:10:04,VALID,917.109,VALID,0,VALID,85.4966,VALID,0,VALID,18.4954,VALID,111,VALID,0,
2013-08-04, 03:11:04,VALID,917.136,VALID,0,VALID,85.3289,VALID,0,VALID,18.5149,VALID,111,VALID,0,
2013-08-04, 03:12:04,VALID,917.138,VALID,0,VALID,85.5042,VALID,0,VALID,18.5149,VALID,111,VALID,0,
2013-08-04, 03:13:04,VALID,917.13,VALID,0,VALID,85.7863,VALID,0,VALID,18.4369,VALID,111,VALID,0,
2013-08-04, 03:14:04,VALID,917.128,VALID,0,VALID,85.7863,VALID,0,VALID,18.4174,VALID,111,VALID,0,
2013-08-04, 03:15:04,VALID,917.088,VALID,0,VALID,85.7787,VALID,0,VALID,18.4174,VALID,111,VALID,0,
2013-08-04, 03:16:04,VALID,917.093,VALID,0,VALID,85.55,VALID,0,VALID,18.4174,VALID,111,VALID,0,
2013-08-04, 03:17:04,VALID,917.07,VALID,0,VALID,85.672,VALID,0.107441,VALID,18.4564,VALID,111,VALID,0,
2013-08-04, 03:18:04,VALID,917.037,VALID,0,VALID,85.5119,VALID,0,VALID,18.4564,VALID,111,VALID,0,
2013-08-04, 03:19:04,VALID,917.021,VALID,0,VALID,85.4356,VALID,0,VALID,18.4745,VALID,111,VALID,0,
2013-08-04, 03:20:04,VALID,917.004,VALID,0,VALID,84.7495,VALID,0.107441,VALID,18.6499,VALID,54,VALID,0,
2013-08-04, 03:21:04,VALID,917.018,VALID,0,VALID,83.3621,VALID,0.107441,VALID,18.7864,VALID,46,VALID,0,
2013-08-04, 03:22:04,VALID,916.998,VALID,0,VALID,83.2325,VALID,0,VALID,18.7864,VALID,332,VALID,0,
2013-08-04, 03:23:04,VALID,916.989,VALID,0,VALID,82.7979,VALID,0.107441,VALID,18.7878,VALID,354,VALID,0,
2013-08-04, 03:24:04,VALID,917.014,VALID,0,VALID,82.9351,VALID,0,VALID,18.8268,VALID,347,VALID,0,
2013-08-04, 03:25:04,VALID,917.032,VALID,0,VALID,83.08,VALID,0,VALID,18.8463,VALID,342,VALID,0,
2013-08-04, 03:26:04,VALID,917.013,VALID,0,VALID,82.8284,VALID,0,VALID,18.8463,VALID,13,VALID,0,
2013-08-04, 03:27:04,VALID,916.98,VALID,0,VALID,82.9961,VALID,0,VALID,18.8853,VALID,13,VALID,0,
2013-08-04, 03:28:04,VALID,917.018,VALID,0,VALID,83.0647,VALID,0,VALID,18.8658,VALID,359,VALID,0,
2013-08-04, 03:29:04,VALID,917.002,VALID,0,VALID,83.0342,VALID,0,VALID,18.8463,VALID,357,VALID,0,
2013-08-04, 03:30:04,VALID,916.996,VALID,0,VALID,83.2248,VALID,0,VALID,18.8463,VALID,357,VALID,0,
2013-08-04, 03:31:04,VALID,916.98,VALID,0,VALID,83.6136,VALID,0,VALID,18.8073,VALID,357,VALID,0,
2013-08-04, 03:32:04,VALID,916.985,VALID,0,VALID,83.6517,VALID,0,VALID,18.6889,VALID,357,VALID,0,
2013-08-04, 03:33:04,VALID,916.95,VALID,0,VALID,83.9414,VALID,0,VALID,18.7098,VALID,357,VALID,0,
2013-08-04, 03:34:04,VALID,916.977,VALID,0,VALID,83.9872,VALID,0,VALID,18.6694,VALID,351,VALID,0,
2013-08-04, 03:35:04,VALID,916.944,VALID,0,VALID,83.9033,VALID,0,VALID,18.6304,VALID,351,VALID,0,
2013-08-04, 03:36:04,VALID,916.956,VALID,0,VALID,84.2006,VALID,0,VALID,18.6513,VALID,351,VALID,0,
2013-08-04, 03:37:04,VALID,916.988,VALID,0,VALID,84.5742,VALID,0,VALID,18.5929,VALID,1,VALID,0,
2013-08-04, 03:38:04,VALID,916.976,VALID,0,VALID,84.6809,VALID,0.107441,VALID,18.5344,VALID,1,VALID,0,
2013-08-04, 03:39:04,VALID,916.989,VALID,0,VALID,84.841,VALID,0,VALID,18.4759,VALID,1,VALID,0,
2013-08-04, 03:40:04,VALID,916.986,VALID,0,VALID,85.1688,VALID,0,VALID,18.4369,VALID,1,VALID,0,
2013-08-04, 03:41:04,VALID,916.983,VALID,0,VALID,85.2222,VALID,0,VALID,18.4355,VALID,2,VALID,0,
2013-08-04, 03:42:04,VALID,916.959,VALID,0,VALID,85.0392,VALID,0,VALID,18.5149,VALID,2,VALID,0,
2013-08-04, 03:43:04,VALID,916.969,VALID,0,VALID,84.5284,VALID,0,VALID,18.5914,VALID,4,VALID,0,
2013-08-04, 03:44:04,VALID,916.994,VALID,0,VALID,84.2311,VALID,0,VALID,18.6708,VALID,5,VALID,0,
2013-08-04, 03:45:04,VALID,916.964,VALID,0,VALID,84.193,VALID,0,VALID,18.6903,VALID,5,VALID,0,
2013-08-04, 03:46:04,VALID,916.996,VALID,0,VALID,84.132,VALID,0,VALID,18.6889,VALID,5,VALID,0,
2013-08-04, 03:47:04,VALID,916.973,VALID,0,VALID,84.2311,VALID,0,VALID,18.7098,VALID,5,VALID,0,
2013-08-04, 03:48:04,VALID,916.982,VALID,0,VALID,84.193,VALID,0,VALID,18.7098,VALID,5,VALID,0,
2013-08-04, 03:49:04,VALID,916.96,VALID,0,VALID,84.1396,VALID,0,VALID,18.6889,VALID,5,VALID,0,
2013-08-04, 03:50:04,VALID,916.945,VALID,0,VALID,84.1625,VALID,0,VALID,18.7098,VALID,5,VALID,0,
2013-08-04, 03:51:04,VALID,916.964,VALID,0,VALID,84.1015,VALID,0.107441,VALID,18.7098,VALID,3,VALID,0,
2013-08-04, 03:52:04,VALID,916.959,VALID,0,VALID,84.2387,VALID,0,VALID,18.7098,VALID,3,VALID,0,
2013-08-04, 03:53:04,VALID,916.93,VALID,0,VALID,84.2997,VALID,0,VALID,18.7098,VALID,3,VALID,0,
2013-08-04, 03:54:04,VALID,916.921,VALID,0,VALID,84.3683,VALID,0,VALID,18.6694,VALID,4,VALID,0,
2013-08-04, 03:55:04,VALID,916.917,VALID,0,VALID,84.5056,VALID,0,VALID,18.6304,VALID,5,VALID,0,
2013-08-04, 03:56:04,VALID,916.894,VALID,0,VALID,84.8715,VALID,0,VALID,18.6124,VALID,6,VALID,0,